Regional Weather Roundup
Issued by NWS Wakefield, VA

Home | Current Version | Previous Version | Graphics & Text | Print | Product List | Glossary On
Versions: 1 2 3 4 5 6 7 8 9 10 11 12 13 14 15 16 17 18 19 20 21 22 23 24 25
661
ASUS41 KAKQ 211115
RWRAKQ

REGIONAL WEATHER ROUNDUP
NATIONAL WEATHER SERVICE WAKEFIELD VA
700 AM EDT THU MAY 21 2015

Note: "fair" indicates few or no clouds below 12,000 feet with no
significant weather and/or obstructions to visibility. * = Denotes
station may not report precipitation (e.g., rain,snow,etc.),
thunder or fog.

VAZ042-051-052>054-056-211200-
NORTHERN VIRGINIA

CITY           SKY/WX    TMP DP  RH WIND       PRES   REMARKS
WASH NATIONAL  CLOUDY    62  43  49 E8        29.99F
DULLES         CLOUDY    57  43  59 E3        29.98S
FORT BELVOIR   CLOUDY    56  49  75 VRB1      29.98F
QUANTICO       LGT RAIN  59  49  69 E6        29.99F
FREDERICKSBRG* LGT RAIN  58  51  78 NE7       29.96F
STAFFORD*      RAIN      55  52  89 E5        30.02S
WARRENTON      DRIZZLE   55  53  92 E3        29.97F
CULPEPER*      RAIN      53  50  91 CALM      29.99S
MANASSAS*      CLOUDY    57  46  67 E3        29.98F
LEESBURG*      CLOUDY    55  50  82 N3        29.99S
WINCHESTER     DRIZZLE   54  43  66 CALM      29.98R
FRONT ROYAL*   CLOUDY    52  50  93 CALM      29.96S
LURAY*         RAIN      54  50  87 CALM      29.97S
$$

VAZ048-049-060>072-079>083-211200-
CENTRAL AND SOUTH CENTRAL VIRGINIA

CITY           SKY/WX    TMP DP  RH WIND       PRES   REMARKS
RICHMOND       LGT RAIN  59  49  69 E8        29.95S
CHESTERFIELD*  NOT AVBL
PETERSBURG*    CLOUDY    63  54  73 E5        29.95R
HANOVER        CLOUDY    58  48  69 NE3       29.97S
TAPPAHANNOCK*  CLOUDY    61  44  53 NE5       29.97F
QUINTON*       CLOUDY    59  51  76 NE3       29.95S
CHARLOTTSVILLE CLOUDY    56  45  66 NE7       29.96S
GORDONSVILLE*  CLOUDY    54  48  82 NE3       29.97S
ORANGE*        CLOUDY    54  50  87 CALM      29.98F
LOUISA*        DRIZZLE   55  52  88 NE3       29.95F
BUMPASS*       CLOUDY    55  52  87 N5        29.96S
FARMVILLE*     NOT AVBL
CREWE*         CLOUDY    58  54  87 CALM      29.94R
FORT PICKETT*  CLOUDY    58  55  89 NE3       29.94R
CHASE CITY*    CLOUDY    61  61 100 E3        29.92S
CLARKSVILLE*   CLOUDY    59  57  94 E7        29.90F
SOUTH HILL*    CLOUDY    60  56  87 CALM      29.98R
LAWRENCEVILLE* CLOUDY    61  57  88 E3        29.92S
EMPORIA*       CLOUDY    63  54  72 E5        29.95S
$$

VAZ088>098-211200-
SOUTHEAST VIRGINIA

CITY           SKY/WX    TMP DP  RH WIND       PRES   REMARKS
NORFOLK        CLOUDY    63  50  62 E10       29.96R
VIRGINIA BEACH CLOUDY    64  52  64 E12       29.95S
NORFOLK NAVAL  CLOUDY    68  50  52 E9        29.97R
WEST POINT*    CLOUDY    62  51  69 E3        29.97S
SALUDA*        CLOUDY    61  49  63 E7        29.97S
NEWPORT NEWS   CLOUDY    66  53  63 E9        29.96R
LANGLEY AFB    CLOUDY    63  51  65 E12       29.95R
FORT EUSTIS    CLOUDY    64  52  65 E8        29.94R
WILLIAMSBURG*  CLOUDY    64  57  77 E5        29.97S
HR EXEC AP*    CLOUDY    63  52  67 E8        29.98R
FRANKLIN*      CLOUDY    62  54  73 E8        29.95S
WAKEFIELD      CLOUDY    63  55  75 CALM      29.95R
$$

VAZ020-022-025-037-045-211200-
WEST CENTRAL AND SOUTHWEST VIRGINIA

CITY           SKY/WX    TMP DP  RH WIND       PRES   REMARKS
STAUNTON*      DRIZZLE   55  48  77 N3        29.98R
WAYNESBORO*    CLOUDY    54  44  68 CALM      29.96S
HOT SPRINGS VA CLOUDY    46  46 100 E9        29.94S
LYNCHBURG      CLOUDY    57  47  69 NE12      29.95R
DANVILLE       CLOUDY    60  58  92 E5        29.91R
SOUTH BOSTON*  CLOUDY    58  57  96 NE3       29.92R
MARTINSVILLE   CLOUDY    58  58 100 N6        29.94R
ROANOKE        NOT AVBL
BLACKSBURG     CLOUDY    55  47  73 E6        29.97R
DUBLIN*        CLOUDY    58  52  81 E6        29.95S
MARION*        LGT RAIN  58  54  86 E5        29.96R
HILLSVILLE*    CLOUDY    56  54  92 NE3       29.92F
RICHLANDS*     HVY RAIN  56  55  95 CALM      29.91R
WISE*          RAIN      55  55 100 N3        29.94R
ABINGDON*      DRIZZLE   60  59  98 CALM      29.91S
$$

MDZ021>025-VAZ099-100-211200-
SOUTHERN MARYLAND AND THE DELMARVA PENINSULA

CITY           SKY/WX    TMP DP  RH WIND       PRES   REMARKS
PATUXENT RIVER CLOUDY    59  46  62 E13       29.99R
BAY BRIDGE APT   N/A    N/A N/A N/A E10       30.01R
LEONARDTOWN    CLOUDY    55  46  71 NE3       30.00R
DOVER          LGT RAIN  55  39  54 NE7       29.98R
GEORGETOWN     CLOUDY    54  44  69 N3        30.02R
EASTON         CLOUDY    55  48  76 E3        30.04S
CAMBRIDGE      CLOUDY    55  43  62 E8        29.98F
SALISBURY      CLOUDY    52  47  83 NE6       30.00R
OCEAN CITY     CLOUDY    58  44  60 E9        30.00S
WALLOPS ISLAND CLOUDY    59  49  69 E14       29.98F
ACCOMACK*      CLOUDY    59  54  82 E3        29.97F
$$

NCZ012>017-030>032-211200-
NORTH CENTRAL AND EASTERN NORTH CAROLINA

CITY           SKY/WX    TMP DP  RH WIND       PRES   REMARKS
ROANOKE RAPIDS CLOUDY    63  52  67 E5        29.92S
RALEIGH        CLOUDY    67  57  70 E10       29.89R
ELIZABETH CITY CLOUDY    64  56  75 E9        29.96R
AHOSKIE*       CLOUDY    63  54  73 E5        29.94S
EDENTON*       CLOUDY    66  58  76 E12G17    29.94R
CURRITUCK*     CLOUDY    64  52  64 E5        29.97R
KILL DEVIL HLS MOSUNNY   64  55  70 E6        29.94F
MANTEO         PTSUNNY   64  55  72 E10       29.95S
CAPE HATTERAS  SUNNY     69  62  78 E9        29.93S
TARBORO*       CLOUDY    65  55  69 E3        29.93S
GOLDSBORO      CLOUDY    67  58  73 E8        29.88R
WASHINGTON     CLOUDY    64  55  72 E8        29.92R
GREENVILLE     CLOUDY    64  55  72 E6        29.94R
NEW BERN       CLOUDY    71  62  73 E7        29.91R
WILMINGTON     CLOUDY    72  70  93 E3        29.87F
$$

VAZ048-211200-
ELSEWHERE

CITY           SKY/WX    TMP DP  RH WIND       PRES   REMARKS
HARRISBURG PA  LGT RAIN  53  41  63 E5        29.99F
BALTIMORE      CLOUDY    57  42  57 E10       29.99S
ANNAPOLIS      CLOUDY    59  42  53 E12       29.99S
ANDREWS AFB    NOT AVBL
PHILADELPHIA   CLOUDY    56  32  40 NE7       30.02F
HENDERSON NC   LGT RAIN  61  55  79 E5        29.91S
GREENSBORO     CLOUDY    63  62  97 NE8       29.87R FOG
ROCKY MOUNT    CLOUDY    66  52  60 E7        29.92R
$$

VAZ100-211200-
MARINE

STATION/POSITION TIME  TEMP    WIND        PRES    WAVE   SWELL
                       AIR SEA DIR/SP/G            HT/PER HT/PER
                 (UTC) (F)     (DEG/KT/KT) (MB)    (FT/S) (FT/S)
BRANDYWINE LGT   1000   56 63   70/ 13/ 16 1015.9R
CAPE MAY NJ      1000   53 68   40/  3/  6 1015.5R
LEWES DE         1000   57 65   80/  8/ 11 1015.7R
15NM E FENWICK I 1050   58 59              1015.5R   3/ 9
OCEAN-CITY-INLET 1000   58 61   80/  7/  9 1015.4R
WACHAPREAGUE VA  1000   61 72   80/  8/ 11 1015.0R
THOMAS POINT MD  1100   59 67  100/ 15/ 16 1016.1R
GOOSES REEF MD   1100   59 66  100/ 14/ 17 1016.5F   0
COVE POINT MD    1000   57     100/ 10/ 11 1016.4R
BISHOPS HEAD MD  1000   59 69   60/ 10/ 14 1015.0R
PINEY POINT MD   1000           70/  5/  6   N/A
CAMBRIDGE MD     1000   58 72   80/ 13/ 15 1015.3R
LEWISETTA VA     1000   63 72              1014.3F
RAPPAHANNOCK LGT 1000           70/ 10/ 12 1015.3R
STINGRAY PT      1100   63 71  100/ 14/ 16 1014.2R   2/ 3
YORK RVR RNG VA  1000   63     100/ 13/ 15 1013.6F
YORKTOWN VA      1000   64 72  100/ 12/ 17 1013.8F
JAMESTOWN VA     1100   63 76  100/  8/ 16 1013.3R
DOMINION TERM VA 1000   65      80/  3/  7 1014.0F
KIPTOPEKE VA     1000      74   90/  6/  7   N/A
CHES BAY BRIDGE  1000   63 69   50/ 14/ 16 1013.7S
CAPE HENRY VA    1000   63      70/ 14/ 15 1013.0S
CHESAPEAKE LGHT  1000   62      70/ 14/ 16 1014.9R
WILLOUBY STN VA  1000   64      90/ 13/ 15 1014.6F
CAPE HENRY BUOY  1028      66                N/A     3/ 4
1ST LANDING BUOY 1100      67              1014.3R
CAPE CHARLES BUO 1026      66                N/A     3/ 4   2/ 9
OFFSHORE WE BUOY 1011      65                N/A     3/ 8   2/ 8
64NM E OF VA BCH 1050   63 62   90/  8/ 10 1014.2R   3/ 9   3/ 9
DUCK PIER NC     1000   64 68   80/ 13/ 14 1013.3R
44100 DUCK FRF   1024      66                N/A     3/ 9
44056 DUCK FRF   1011      66                N/A     3/ 9
OREGON INLET NC  1000   65 68   60/ 10/ 15 1014.0R
HATTERAS NC      1000   70 72   60/  5/  7 1012.8R
DIAMOND SHLS NC  1050   74 77  110/ 14/ 16 1013.3R   3/ 8   2/ 8
CAPE LOOKOUT NC  1100   72     120/ 11/ 13 1012.0R
$$



USA.gov is the U.S. government's official web portal to all federal, state and local government web resources and services.